User: anonymous   Login
Location: Fontevrault
(47.1823°N, 0.0493°E)
Time: 20:20:42
(UTC+00:00)
Language:

COSMOS 1275 DEB - Orbit

View from above orbital plane
View from above orbital plane
View from above satellite
View from above satellite

Ground track
Ground track

The orbit data is extracted from the following two-line orbital elements,

1 42218U 81053UJ  22010.20582866  .00001244  00000-0  83753-3 0  9996
2 42218  82.8751  96.4526 0065154 104.1631 256.6789 13.98826812414829
Epoch (UTC): 10 January 2022 04:56:23
Eccentricity: 0.0065154
inclination: 82.8751°
perigee height: 850 km
apogee height: 945 km
right ascension of ascending node: 96.4526°
argument of perigee: 104.1631°
revolutions per day: 13.98826812
mean anomaly at epoch: 256.6789°
orbit number at epoch: 41482

The dashed part of the orbit path shows where the satellite is in the earth's shadow,  

DLR